| time (UTC) | temp C | wind direction | speed KPH | gust KPH | rain 1hr cm | rain 24hr cm | rain mn cm | humidity % | barometer mb |
| 20260510040658 | 15 | 292 | 0.0 | 1.6 | 0.00 | 0.00 | 0.00 | 77 | 1011.7 |
| 20260510035714 | 15 | 292 | 1.6 | 3.2 | 0.00 | 0.00 | 0.00 | 78 | 1011.9 |
| 20260510034651 | 16 | 0.0 | 0.0 | 0.00 | 0.00 | 0.00 | 78 | 1011.8 | |
| 20260510033642 | 16 | 0.0 | 1.6 | 0.00 | 0.00 | 0.00 | 76 | 1011.9 | |
| 20260510032638 | 16 | 0.0 | 0.0 | 0.00 | 0.00 | 0.00 | 76 | 1011.9 | |
| 20260510031635 | 16 | 0.0 | 0.0 | 0.00 | 0.00 | 0.00 | 71 | 1012.1 | |
| 20260510030633 | 16 | 0.0 | 0.0 | 0.00 | 0.00 | 0.00 | 70 | 1012.3 | |
| 20260510025627 | 16 | 0.0 | 0.0 | 0.00 | 0.00 | 0.00 | 69 | 1012.1 | |
| 20260510024624 | 16 | 0.0 | 0.0 | 0.00 | 0.00 | 0.00 | 68 | 1012.2 | |
| 20260510023621 | 16 | 0.0 | 0.0 | 0.00 | 0.00 | 0.00 | 68 | 1012.2 | |
| 20260510022617 | 16 | 292 | 1.6 | 3.2 | 0.00 | 0.00 | 0.00 | 68 | 1012.4 |
| 20260510021607 | 16 | 292 | 0.0 | 3.2 | 0.00 | 0.00 | 0.00 | 68 | 1012.4 |
| 20260510020604 | 16 | 292 | 3.2 | 4.8 | 0.00 | 0.00 | 0.00 | 68 | 1012.5 |
| 20260510015600 | 16 | 292 | 1.6 | 3.2 | 0.00 | 0.00 | 0.00 | 68 | 1012.9 |
| 20260510014638 | 16 | 292 | 1.6 | 4.8 | 0.00 | 0.00 | 0.00 | 67 | 1012.8 |
| 20260510013553 | 16 | 315 | 1.6 | 3.2 | 0.00 | 0.00 | 0.00 | 67 | 1012.8 |
| 20260510012551 | 16 | 292 | 0.0 | 3.2 | 0.00 | 0.00 | 0.00 | 67 | 1012.9 |
| 20260510011541 | 16 | 292 | 3.2 | 4.8 | 0.00 | 0.00 | 0.00 | 68 | 1012.8 |
| 20260510010537 | 16 | 292 | 0.0 | 3.2 | 0.00 | 0.00 | 0.00 | 68 | 1012.9 |
| 20260510005533 | 16 | 292 | 1.6 | 3.2 | 0.00 | 0.00 | 0.00 | 68 | 1013.4 |
| 20260510004529 | 16 | 0.0 | 0.0 | 0.00 | 0.00 | 0.00 | 68 | 1013.2 | |
| 20260510003539 | 16 | 315 | 3.2 | 6.4 | 0.00 | 0.00 | 0.00 | 68 | 1013.2 |
| 20260510002515 | 17 | 292 | 3.2 | 4.8 | 0.00 | 0.00 | 0.00 | 68 | 1013.0 |
| 20260510001511 | 17 | 315 | 1.6 | 4.8 | 0.00 | 0.00 | 0.00 | 68 | 1013.5 |
| 20260510000508 | 17 | 315 | 1.6 | 4.8 | 0.00 | 0.00 | 0.00 | 68 | 1013.4 |
| 20260509235504 | 17 | 292 | 3.2 | 6.4 | 0.00 | 0.00 | 0.00 | 67 | 1013.9 |
| 20260509234503 | 17 | 292 | 3.2 | 4.8 | 0.00 | 0.00 | 0.00 | 68 | 1013.7 |
| 20260509234000 | 17 | 292 | 4.8 | 6.4 | 0.00 | 0.00 | 0.00 | 68 | 1013.8 |
| 20260509232958 | 16 | 315 | 3.2 | 4.8 | 0.00 | 0.00 | 0.00 | 69 | 1013.8 |
| 20260509231953 | 16 | 315 | 1.6 | 4.8 | 0.00 | 0.00 | 0.00 | 69 | 1013.7 |
| 20260509230950 | 16 | 315 | 4.8 | 6.4 | 0.00 | 0.00 | 0.00 | 70 | 1013.7 |
| 20260509225946 | 16 | 292 | 1.6 | 4.8 | 0.00 | 0.00 | 0.00 | 70 | 1013.8 |
| 20260509224943 | 16 | 292 | 0.0 | 1.6 | 0.00 | 0.00 | 0.00 | 71 | 1013.6 |
| 20260509223941 | 16 | 292 | 1.6 | 3.2 | 0.00 | 0.00 | 0.00 | 70 | 1013.8 |
| 20260509222930 | 16 | 0.0 | 1.6 | 0.00 | 0.00 | 0.00 | 70 | 1013.8 | |
| 20260509222007 | 16 | 0.0 | 0.0 | 0.00 | 0.00 | 0.00 | 69 | 1013.9 | |
| 20260509221042 | 16 | 0.0 | 0.0 | 0.00 | 0.00 | 0.00 | 69 | 1013.8 | |
| 20260509215940 | 17 | 0.0 | 0.0 | 0.00 | 0.00 | 0.00 | 68 | 1013.9 | |
| 20260509214915 | 17 | 0.0 | 0.0 | 0.00 | 0.00 | 0.00 | 68 | 1013.8 | |
| 20260509213906 | 17 | 0.0 | 0.0 | 0.00 | 0.00 | 0.00 | 68 | 1013.7 | |
| 20260509212903 | 17 | 0.0 | 0.0 | 0.00 | 0.00 | 0.00 | 66 | 1013.7 | |
| 20260509211856 | 17 | 0.0 | 0.0 | 0.00 | 0.00 | 0.00 | 66 | 1013.6 | |
| 20260509210853 | 17 | 270 | 1.6 | 3.2 | 0.00 | 0.00 | 0.00 | 66 | 1013.7 |
| 20260509205850 | 17 | 0.0 | 1.6 | 0.00 | 0.00 | 0.00 | 66 | 1013.4 | |
| 20260509204841 | 17 | 0.0 | 0.0 | 0.00 | 0.00 | 0.00 | 68 | 1013.6 | |
| 20260509203838 | 17 | 0.0 | 0.0 | 0.00 | 0.00 | 0.00 | 67 | 1013.5 | |
| 20260509202829 | 18 | 0.0 | 0.0 | 0.00 | 0.00 | 0.00 | 65 | 1013.5 | |
| 20260509201824 | 18 | 0.0 | 0.0 | 0.00 | 0.00 | 0.00 | 65 | 1013.4 | |
| 20260509200820 | 18 | 0.0 | 0.0 | 0.00 | 0.00 | 0.00 | 65 | 1013.3 | |
| 20260509195818 | 18 | 0.0 | 0.0 | 0.00 | 0.00 | 0.00 | 65 | 1013.3 | |
| 20260509194814 | 18 | 0.0 | 0.0 | 0.00 | 0.00 | 0.00 | 63 | 1013.0 | |
| 20260509193811 | 19 | 0.0 | 0.0 | 0.00 | 0.00 | 0.00 | 64 | 1013.0 | |
| 20260509192808 | 20 | 0.0 | 0.0 | 0.00 | 0.00 | 0.00 | 63 | 1012.9 | |
| 20260509191803 | 20 | 0.0 | 0.0 | 0.00 | 0.00 | 0.00 | 60 | 1012.8 | |
| 20260509190754 | 20 | 0.0 | 0.0 | 0.00 | 0.00 | 0.00 | 58 | 1012.6 | |
| 20260509185750 | 21 | 0.0 | 0.0 | 0.00 | 0.00 | 0.00 | 52 | 1012.7 | |
| 20260509184747 | 21 | 0.0 | 0.0 | 0.00 | 0.00 | 0.00 | 52 | 1012.7 | |
| 20260509183743 | 21 | 0.0 | 0.0 | 0.00 | 0.00 | 0.00 | 52 | 1012.8 | |
| 20260509182739 | 21 | 0.0 | 0.0 | 0.00 | 0.00 | 0.00 | 50 | 1012.7 | |
| 20260509181729 | 21 | 0.0 | 0.0 | 0.00 | 0.00 | 0.00 | 50 | 1012.9 | |
| 20260509180726 | 22 | 0.0 | 0.0 | 0.00 | 0.00 | 0.00 | 49 | 1012.7 | |
| 20260509175737 | 22 | 0.0 | 0.0 | 0.00 | 0.00 | 0.00 | 47 | 1012.8 | |
| 20260509174714 | 22 | 0.0 | 0.0 | 0.00 | 0.00 | 0.00 | 46 | 1012.4 | |
| 20260509173729 | 23 | 0.0 | 0.0 | 0.00 | 0.00 | 0.00 | 45 | 1012.6 | |
| 20260509172726 | 23 | 0.0 | 0.0 | 0.00 | 0.00 | 0.00 | 43 | 1012.7 | |
| 20260509171656 | 23 | 0.0 | 0.0 | 0.00 | 0.00 | 0.00 | 43 | 1012.9 | |
| 20260509170713 | 23 | 0.0 | 1.6 | 0.00 | 0.00 | 0.00 | 44 | 1012.8 | |
| 20260509165648 | 23 | 0.0 | 0.0 | 0.00 | 0.00 | 0.00 | 44 | 1012.7 | |
| 20260509164728 | 23 | 0.0 | 1.6 | 0.00 | 0.00 | 0.00 | 43 | 1012.8 | |
| 20260509163641 | 23 | 292 | 0.0 | 1.6 | 0.00 | 0.00 | 0.00 | 42 | 1013.0 |
| 20260509162634 | 24 | 0.0 | 1.6 | 0.00 | 0.00 | 0.00 | 42 | 1012.9 | |
| 20260509161630 | 23 | 0.0 | 0.0 | 0.00 | 0.00 | 0.00 | 41 | 1012.9 | |
| 20260509160624 | 23 | 0.0 | 1.6 | 0.00 | 0.00 | 0.00 | 41 | 1013.2 | |
| 20260509155621 | 23 | 315 | 3.2 | 4.8 | 0.00 | 0.00 | 0.00 | 41 | 1013.2 |
| 20260509154620 | 24 | 315 | 0.0 | 1.6 | 0.00 | 0.00 | 0.00 | 40 | 1013.0 |
| 20260509153608 | 23 | 292 | 1.6 | 3.2 | 0.00 | 0.00 | 0.00 | 41 | 1013.2 |
| 20260509152604 | 23 | 315 | 0.0 | 3.2 | 0.00 | 0.00 | 0.00 | 41 | 1013.2 |
| 20260509151602 | 24 | 0.0 | 1.6 | 0.00 | 0.00 | 0.00 | 41 | 1013.2 | |
| 20260509150557 | 24 | 315 | 3.2 | 3.2 | 0.00 | 0.00 | 0.00 | 43 | 1013.3 |
| 20260509145553 | 24 | 112 | 1.6 | 3.2 | 0.00 | 0.00 | 0.00 | 43 | 1013.3 |
| 20260509144550 | 24 | 112 | 1.6 | 4.8 | 0.00 | 0.00 | 0.00 | 45 | 1013.3 |
| 20260509143541 | 22 | 315 | 4.8 | 9.7 | 0.00 | 0.00 | 0.00 | 45 | 1013.3 |
| 20260509142532 | 24 | 292 | 1.6 | 3.2 | 0.00 | 0.00 | 0.00 | 44 | 1013.4 |
| 20260509141527 | 23 | 315 | 3.2 | 6.4 | 0.00 | 0.00 | 0.00 | 46 | 1013.6 |
| 20260509140523 | 23 | 315 | 1.6 | 1.6 | 0.00 | 0.00 | 0.00 | 45 | 1013.6 |
| 20260509135518 | 24 | 292 | 0.0 | 3.2 | 0.00 | 0.00 | 0.00 | 46 | 1013.7 |
| 20260509134515 | 24 | 315 | 3.2 | 3.2 | 0.00 | 0.00 | 0.00 | 45 | 1014.1 |
| 20260509133506 | 24 | 292 | 3.2 | 4.8 | 0.00 | 0.00 | 0.00 | 44 | 1014.0 |
| 20260509132505 | 23 | 0 | 1.6 | 3.2 | 0.00 | 0.00 | 0.00 | 46 | 1014.3 |
| 20260509131459 | 23 | 292 | 1.6 | 4.8 | 0.00 | 0.00 | 0.00 | 46 | 1014.4 |
| 20260509130454 | 25 | 0.0 | 0.0 | 0.00 | 0.00 | 0.00 | 43 | 1014.3 | |
| 20260509125451 | 25 | 292 | 0.0 | 3.2 | 0.00 | 0.00 | 0.00 | 43 | 1014.4 |
| 20260509124447 | 24 | 315 | 3.2 | 4.8 | 0.00 | 0.00 | 0.00 | 43 | 1014.6 |
| 20260509123444 | 23 | 315 | 4.8 | 6.4 | 0.00 | 0.00 | 0.00 | 45 | 1014.4 |
| 20260509122441 | 25 | 270 | 1.6 | 4.8 | 0.00 | 0.00 | 0.00 | 43 | 1014.3 |
| 20260509121439 | 25 | 0 | 0.0 | 1.6 | 0.00 | 0.00 | 0.00 | 41 | 1014.8 |
| 20260509120428 | 25 | 0.0 | 1.6 | 0.00 | 0.00 | 0.00 | 37 | 1014.7 | |
| 20260509115423 | 24 | 90 | 1.6 | 9.7 | 0.00 | 0.00 | 0.00 | 41 | 1014.7 |
| 20260509114419 | 24 | 292 | 3.2 | 6.4 | 0.00 | 0.00 | 0.00 | 41 | 1014.7 |
| 20260509113417 | 23 | 112 | 1.6 | 3.2 | 0.00 | 0.00 | 0.00 | 42 | 1014.7 |
| 20260509112427 | 22 | 135 | 3.2 | 4.8 | 0.00 | 0.00 | 0.00 | 46 | 1014.8 |
| 20260509111404 | 24 | 112 | 3.2 | 6.4 | 0.00 | 0.00 | 0.00 | 42 | 1014.8 |
| 20260509110354 | 24 | 315 | 0.0 | 3.2 | 0.00 | 0.00 | 0.00 | 45 | 1015.2 |
| 20260509105350 | 23 | 0.0 | 1.6 | 0.00 | 0.00 | 0.00 | 46 | 1015.2 | |
| 20260509104346 | 23 | 112 | 1.6 | 3.2 | 0.00 | 0.00 | 0.00 | 46 | 1015.6 |
| 20260509103343 | 24 | 135 | 1.6 | 3.2 | 0.00 | 0.00 | 0.00 | 42 | 1015.9 |
| 20260509102339 | 23 | 292 | 1.6 | 3.2 | 0.00 | 0.00 | 0.00 | 44 | 1015.8 |
| 20260509101334 | 24 | 112 | 1.6 | 3.2 | 0.00 | 0.00 | 0.00 | 42 | 1015.9 |
| 20260509100331 | 23 | 202 | 0.0 | 1.6 | 0.00 | 0.00 | 0.00 | 46 | 1015.8 |
| 20260509095330 | 22 | 270 | 1.6 | 3.2 | 0.00 | 0.00 | 0.00 | 47 | 1016.0 |
| 20260509094326 | 23 | 0.0 | 1.6 | 0.00 | 0.00 | 0.00 | 48 | 1016.3 | |
| 20260509093318 | 22 | 270 | 0.0 | 1.6 | 0.00 | 0.00 | 0.00 | 52 | 1016.2 |
| 20260509092313 | 23 | 292 | 1.6 | 3.2 | 0.00 | 0.00 | 0.00 | 50 | 1015.9 |
| 20260509091330 | 23 | 292 | 1.6 | 3.2 | 0.00 | 0.00 | 0.00 | 52 | 1016.0 |
| 20260509090305 | 23 | 247 | 0.0 | 1.6 | 0.00 | 0.00 | 0.00 | 52 | 1016.0 |
| 20260509085255 | 22 | 292 | 0.0 | 1.6 | 0.00 | 0.00 | 0.00 | 54 | 1016.3 |
| 20260509084333 | 21 | 292 | 1.6 | 3.2 | 0.00 | 0.00 | 0.00 | 56 | 1016.4 |
| 20260509083309 | 22 | 0.0 | 0.0 | 0.00 | 0.00 | 0.00 | 54 | 1016.4 | |
| 20260509082245 | 22 | 292 | 0.0 | 1.6 | 0.00 | 0.00 | 0.00 | 57 | 1016.2 |
| 20260509081241 | 21 | 292 | 1.6 | 3.2 | 0.00 | 0.00 | 0.00 | 57 | 1016.4 |
| 20260509080238 | 21 | 292 | 0.0 | 1.6 | 0.00 | 0.00 | 0.00 | 60 | 1016.3 |
| 20260509075234 | 21 | 292 | 0.0 | 1.6 | 0.00 | 0.00 | 0.00 | 59 | 1016.5 |
| 20260509074231 | 21 | 292 | 1.6 | 3.2 | 0.00 | 0.00 | 0.00 | 60 | 1016.7 |
| 20260509073249 | 21 | 292 | 0.0 | 3.2 | 0.00 | 0.00 | 0.00 | 58 | 1016.4 |
| 20260509072243 | 20 | 0.0 | 0.0 | 0.00 | 0.00 | 0.00 | 61 | 1016.3 | |
| 20260509071220 | 20 | 292 | 0.0 | 1.6 | 0.00 | 0.00 | 0.00 | 61 | 1016.1 |
| 20260509070218 | 18 | 292 | 1.6 | 3.2 | 0.00 | 0.00 | 0.00 | 66 | 1016.4 |
| 20260509065255 | 18 | 292 | 0.0 | 1.6 | 0.00 | 0.00 | 0.00 | 67 | 1016.3 |
| 20260509064209 | 17 | 292 | 3.2 | 3.2 | 0.00 | 0.00 | 0.00 | 71 | 1016.2 |
| 20260509063206 | 16 | 292 | 1.6 | 4.8 | 0.00 | 0.00 | 0.00 | 75 | 1016.2 |
| 20260509062203 | 16 | 292 | 3.2 | 3.2 | 0.00 | 0.00 | 0.00 | 74 | 1016.0 |
| 20260509060911 | 15 | 292 | 3.2 | 3.2 | 0.00 | 0.00 | 0.00 | 76 | 1016.3 |
| 20260509055907 | 15 | 292 | 1.6 | 3.2 | 0.00 | 0.00 | 0.00 | 76 | 1016.3 |
| 20260509054923 | 15 | 292 | 1.6 | 3.2 | 0.00 | 0.00 | 0.00 | 77 | 1016.2 |
| 20260509053919 | 15 | 0.0 | 1.6 | 0.00 | 0.00 | 0.00 | 76 | 1016.3 | |
| 20260509052855 | 15 | 0.0 | 0.0 | 0.00 | 0.00 | 0.00 | 77 | 1016.2 | |
| 20260509051850 | 15 | 0.0 | 0.0 | 0.00 | 0.00 | 0.00 | 78 | 1016.1 | |
| 20260509050906 | 13 | 315 | 0.0 | 1.6 | 0.00 | 0.00 | 0.00 | 80 | 1016.1 |
| 20260509045842 | 13 | 0.0 | 0.0 | 0.00 | 0.00 | 0.00 | 84 | 1015.9 | |
| 20260509044838 | 12 | 0.0 | 0.0 | 0.00 | 0.00 | 0.00 | 86 | 1015.7 | |
| 20260509043855 | 12 | 0.0 | 0.0 | 0.00 | 0.00 | 0.00 | 87 | 1015.6 | |
| 20260509042831 | 11 | 0.0 | 0.0 | 0.00 | 0.00 | 0.00 | 88 | 1015.3 | |
| 20260509041827 | 11 | 0.0 | 0.0 | 0.00 | 0.00 | 0.00 | 88 | 1015.5 |